When you browse on this site, cookies collect data to enhance your experience and personalize the content and advertising you see.
Visit our Privacy Policy to learn more. By continuing to use the site, you agree to this use of cookies and data.
  • In Österreich
  • Länderverzeichnis
  • Für 7 Tage
  • Wassertemperatur
  • Wetterkarte
  • News
  • Widgets
  • user-avatar
    Anmelden

    Stündliche Wetter Namibe

    Heute, 15 Dezember, Sonntag

    Zeit Temperatur Niederschläge Wind Luftdruck Luftfeuchtigkeit
    00:00 +25°C° 0 mm 3 m/S 757 mmHg 72%
    01:00 +25°C° 0 mm 2 m/S 757 mmHg 74%
    02:00 +25°C° 0 mm 3 m/S 757 mmHg 75%
    03:00 +25°C° 0 mm 3 m/S 757 mmHg 76%
    04:00 +25°C° 0 mm 3 m/S 756 mmHg 77%
    05:00 +25°C° 0 mm 3 m/S 757 mmHg 77%
    06:00 +26°C° 0 mm 4 m/S 757 mmHg 77%
    07:00 +26°C° 0 mm 4 m/S 757 mmHg 76%
    08:00 +27°C° 0 mm 5 m/S 757 mmHg 71%
    09:00 +29°C° 0 mm 6 m/S 757 mmHg 66%
    10:00 +30°C° 0 mm 7 m/S 758 mmHg 61%
    11:00 +32°C° 0 mm 7 m/S 757 mmHg 60%
    12:00 +32°C° 0 mm 7 m/S 756 mmHg 60%
    13:00 +32°C° 0 mm 6 m/S 756 mmHg 59%
    14:00 +32°C° 0 mm 6 m/S 755 mmHg 62%
    15:00 +30°C° 0 mm 6 m/S 755 mmHg 64%
    16:00 +30°C° 0 mm 6 m/S 754 mmHg 67%
    17:00 +29°C° 0 mm 5 m/S 755 mmHg 70%
    18:00 +28°C° 0 mm 4 m/S 755 mmHg 72%
    19:00 +28°C° 0 mm 3 m/S 756 mmHg 75%
    20:00 +28°C° 0.1 mm 2 m/S 757 mmHg 75%
    21:00 +28°C° 0.1 mm 2 m/S 757 mmHg 75%
    22:00 +27°C° 0.1 mm 1 m/S 758 mmHg 76%
    23:00 +27°C° 0.4 mm 1 m/S 757 mmHg 76%

    Morgen, 16 Dezember, Montag

    Zeit Temperatur Niederschläge Wind Luftdruck Luftfeuchtigkeit
    00:00 +27°C° 0.4 mm 1 m/S 757 mmHg 77%
    01:00 +27°C° 0.4 mm 1 m/S 757 mmHg 78%
    02:00 +27°C° 0.1 mm 1 m/S 756 mmHg 79%
    03:00 +27°C° 0.1 mm 1 m/S 756 mmHg 79%
    04:00 +27°C° 0.1 mm 1 m/S 756 mmHg 80%
    05:00 +27°C° 0.2 mm 1 m/S 756 mmHg 80%
    06:00 +25°C° 0.2 mm 0 m/S 757 mmHg 80%
    07:00 +25°C° 0.2 mm 0 m/S 757 mmHg 80%
    08:00 +29°C° 0.2 mm 1 m/S 757 mmHg 73%
    09:00 +30°C° 0.2 mm 2 m/S 757 mmHg 66%
    10:00 +32°C° 0.2 mm 2 m/S 758 mmHg 60%
    11:00 +33°C° 0.1 mm 3 m/S 757 mmHg 60%
    12:00 +33°C° 0.1 mm 4 m/S 757 mmHg 60%
    13:00 +33°C° 0.1 mm 5 m/S 756 mmHg 60%
    14:00 +32°C° 0.1 mm 4 m/S 756 mmHg 62%
    15:00 +32°C° 0.1 mm 4 m/S 755 mmHg 65%
    16:00 +30°C° 0.1 mm 4 m/S 755 mmHg 67%
    17:00 +30°C° 0.1 mm 4 m/S 755 mmHg 69%
    18:00 +29°C° 0.1 mm 4 m/S 756 mmHg 72%
    19:00 +29°C° 0.1 mm 4 m/S 756 mmHg 74%
    20:00 +29°C° 0.2 mm 3 m/S 756 mmHg 72%
    21:00 +30°C° 0.2 mm 3 m/S 757 mmHg 70%
    22:00 +30°C° 0.2 mm 3 m/S 757 mmHg 68%
    23:00 +30°C° 0 mm 3 m/S 757 mmHg 67%

    übermorgen, 17 Dezember, Dienstag

    Zeit Temperatur Niederschläge Wind Luftdruck Luftfeuchtigkeit
    00:00 +30°C° 0 mm 3 m/S 756 mmHg 67%
    01:00 +30°C° 0 mm 3 m/S 756 mmHg 67%
    02:00 +30°C° 0 mm 3 m/S 756 mmHg 69%
    03:00 +29°C° 0 mm 3 m/S 756 mmHg 70%
    04:00 +29°C° 0 mm 3 m/S 755 mmHg 72%
    05:00 +29°C° 0.4 mm 3 m/S 756 mmHg 72%
    06:00 +29°C° 0.4 mm 4 m/S 756 mmHg 72%
    07:00 +29°C° 0.4 mm 4 m/S 757 mmHg 72%
    08:00 +29°C° 0.4 mm 4 m/S 757 mmHg 69%
    09:00 +30°C° 0.4 mm 4 m/S 757 mmHg 66%
    10:00 +30°C° 0.4 mm 4 m/S 756 mmHg 63%
    11:00 +32°C° 0 mm 4 m/S 756 mmHg 59%
    12:00 +33°C° 0 mm 5 m/S 755 mmHg 55%
    13:00 +35°C° 0 mm 5 m/S 755 mmHg 52%
    14:00 +34°C° 0 mm 6 m/S 754 mmHg 55%
    15:00 +33°C° 0 mm 6 m/S 754 mmHg 58%
    16:00 +32°C° 0 mm 7 m/S 754 mmHg 60%
    17:00 +30°C° 0 mm 7 m/S 754 mmHg 64%
    18:00 +29°C° 0 mm 7 m/S 755 mmHg 68%
    19:00 +27°C° 0 mm 6 m/S 755 mmHg 72%
    20:00 +28°C° 0 mm 5 m/S 756 mmHg 69%
    21:00 +28°C° 0 mm 4 m/S 757 mmHg 66%
    22:00 +28°C° 0 mm 3 m/S 757 mmHg 63%
    23:00 +28°C° 0 mm 3 m/S 757 mmHg 64%

    18 Dezember, Mittwoch

    Zeit Temperatur Niederschläge Wind Luftdruck Luftfeuchtigkeit
    00:00 +28°C° 0 mm 3 m/S 757 mmHg 65%
    01:00 +27°C° 0 mm 3 m/S 756 mmHg 65%
    02:00 +27°C° 0.3 mm 3 m/S 756 mmHg 66%
    03:00 +27°C° 0.3 mm 2 m/S 756 mmHg 67%
    04:00 +27°C° 0.3 mm 2 m/S 756 mmHg 68%
    05:00 +27°C° 0.3 mm 2 m/S 756 mmHg 69%
    06:00 +28°C° 0.3 mm 3 m/S 757 mmHg 70%
    07:00 +28°C° 0.3 mm 3 m/S 757 mmHg 70%
    08:00 +28°C° 0 mm 3 m/S 757 mmHg 67%
    09:00 +29°C° 0 mm 4 m/S 757 mmHg 64%
    10:00 +30°C° 0 mm 4 m/S 757 mmHg 60%
    11:00 +32°C° 0 mm 5 m/S 756 mmHg 60%
    12:00 +32°C° 0 mm 6 m/S 755 mmHg 59%
    13:00 +32°C° 0 mm 6 m/S 755 mmHg 58%
    14:00 +32°C° 0 mm 6 m/S 754 mmHg 59%
    15:00 +30°C° 0 mm 6 m/S 754 mmHg 59%
    16:00 +30°C° 0 mm 6 m/S 754 mmHg 60%
    17:00 +29°C° 0 mm 6 m/S 754 mmHg 63%
    18:00 +28°C° 0 mm 6 m/S 755 mmHg 67%
    19:00 +27°C° 0 mm 5 m/S 755 mmHg 71%
    20:00 +27°C° 0.7 mm 4 m/S 756 mmHg 70%
    21:00 +27°C° 0.7 mm 3 m/S 756 mmHg 68%
    22:00 +27°C° 0.7 mm 2 m/S 757 mmHg 66%
    23:00 +27°C° 0.4 mm 2 m/S 757 mmHg 69%

    19 Dezember, Donnerstag

    Zeit Temperatur Niederschläge Wind Luftdruck Luftfeuchtigkeit
    00:00 +26°C° 0.4 mm 3 m/S 756 mmHg 71%
    01:00 +26°C° 0.4 mm 3 m/S 756 mmHg 74%
    02:00 +26°C° 0.4 mm 3 m/S 756 mmHg 75%
    03:00 +25°C° 0.4 mm 2 m/S 756 mmHg 76%
    04:00 +25°C° 0.4 mm 2 m/S 756 mmHg 78%
    05:00 +25°C° 0.2 mm 2 m/S 756 mmHg 78%
    06:00 +25°C° 0.2 mm 2 m/S 757 mmHg 78%
    07:00 +25°C° 0.2 mm 1 m/S 757 mmHg 77%
    08:00 +26°C° 0 mm 2 m/S 757 mmHg 73%
    09:00 +28°C° 0 mm 3 m/S 757 mmHg 69%
    10:00 +29°C° 0 mm 3 m/S 757 mmHg 64%
    11:00 +29°C° 0 mm 4 m/S 756 mmHg 64%
    12:00 +29°C° 0 mm 4 m/S 756 mmHg 63%
    13:00 +30°C° 0 mm 5 m/S 755 mmHg 62%
    14:00 +30°C° 0 mm 5 m/S 755 mmHg 61%
    15:00 +29°C° 0 mm 5 m/S 754 mmHg 60%
    16:00 +29°C° 0 mm 5 m/S 754 mmHg 60%
    17:00 +28°C° 0 mm 4 m/S 755 mmHg 62%
    18:00 +28°C° 0 mm 4 m/S 755 mmHg 65%
    19:00 +27°C° 0 mm 4 m/S 756 mmHg 67%
    20:00 +27°C° 0.1 mm 4 m/S 756 mmHg 69%
    21:00 +27°C° 0.1 mm 4 m/S 757 mmHg 70%
    22:00 +27°C° 0.1 mm 4 m/S 758 mmHg 71%
    23:00 +26°C° 0.2 mm 4 m/S 758 mmHg 73%

    20 Dezember, Freitag

    Zeit Temperatur Niederschläge Wind Luftdruck Luftfeuchtigkeit
    00:00 +26°C° 0.2 mm 4 m/S 758 mmHg 74%
    01:00 +26°C° 0.2 mm 3 m/S 758 mmHg 75%
    02:00 +26°C° 0.2 mm 3 m/S 758 mmHg 77%
    03:00 +26°C° 0.2 mm 3 m/S 757 mmHg 79%
    04:00 +26°C° 0.2 mm 3 m/S 757 mmHg 80%
    05:00 +26°C° 0.8 mm 3 m/S 758 mmHg 80%
    06:00 +26°C° 0.8 mm 3 m/S 758 mmHg 80%
    07:00 +26°C° 0.8 mm 3 m/S 758 mmHg 80%
    08:00 +27°C° 0.7 mm 3 m/S 758 mmHg 76%
    09:00 +28°C° 0.7 mm 4 m/S 758 mmHg 72%
    10:00 +29°C° 0.7 mm 4 m/S 759 mmHg 68%
    11:00 +30°C° 0.1 mm 4 m/S 758 mmHg 67%
    12:00 +30°C° 0.1 mm 4 m/S 757 mmHg 66%
    13:00 +30°C° 0.1 mm 4 m/S 757 mmHg 65%
    14:00 +30°C° 0 mm 4 m/S 756 mmHg 66%
    15:00 +30°C° 0 mm 4 m/S 756 mmHg 68%
    16:00 +29°C° 0 mm 4 m/S 755 mmHg 69%
    17:00 +28°C° 0 mm 4 m/S 756 mmHg 71%
    18:00 +28°C° 0 mm 4 m/S 756 mmHg 74%
    19:00 +27°C° 0 mm 4 m/S 757 mmHg 76%
    20:00 +27°C° 0.2 mm 3 m/S 757 mmHg 76%
    21:00 +27°C° 0.2 mm 2 m/S 758 mmHg 76%
    22:00 +27°C° 0.2 mm 1 m/S 758 mmHg 76%
    23:00 +27°C° 0.1 mm 1 m/S 758 mmHg 76%
    Mehr zeigen